Tracking 29495 objects as of 7-Sep-2024
HD Live streaming from Space Station
objects crossing your sky now

BS-3A (YURI 3A)

Track BS-3A (YURI 3A) now!
BS-3A (YURI 3A) is classified as:


NORAD ID: 20771
Int'l Code: 1990-077A
Perigee: 36,155.6 km
Apogee: 36,259.5 km
Inclination: 15.6 °
Period: 1,457.3 minutes
Semi major axis: 42578 km
RCS: 1.6597 m2 (large)
Launch date: August 28, 1990
Source: Japan (JPN)
Launch site: TANEGASHIMA SPACE CENTER (TNSTA)
Your satellite tracking list
Your tracking list is empty




NASA's NSSDC Master Catalog

Two Line Element Set (TLE):
1 20771U 90077A   24250.54541936 -.00000237  00000-0  00000-0 0  9993
2 20771  15.5755   2.4547 0012204 236.2890  73.8967  0.98813572129160
Source of the keplerian elements: AFSPC